Weather History for Trinidad, CO

Change the Weather History Date:

Thursday, August 8, 2013

  Actual Average Record
Temperature  
Mean Temperature 61 °F 72 °F  
Max Temperature 67 °F 87 °F 99 °F (1969)
Min Temperature 54 °F 58 °F 49 °F (1989)
Degree Days  
Heating Degree Days 4 0  
Month to date heating degree days 4 0  
Since 1 June heating degree days 25 42  
Since 1 July heating degree days 4 3  
Cooling Degree Days 0 7  
Month to date cooling degree days 59 62  
Year to date cooling degree days 706 497  
Since 1 June cooling degree days 643 469  
Growing Degree Days 10 (Base 50)    
Moisture  
Dew Point 56 °F    
Average Humidity 85    
Maximum Humidity 97    
Minimum Humidity 73    
Precipitation  
Precipitation 0.42 in 0.09 in 1.46 in (1980)
Month to date precipitation 1.27 0.68  
Year to date precipitation 6.66 8.91  
Sea Level Pressure  
Sea Level Pressure 30.07 in    
Wind  
Wind Speed 5 mph (NW)    
Max Wind Speed 14 mph    
Max Gust Speed 15 mph    
Visibility 9 miles    
Events Rain , Thunderstorm    
T = Trace of Precipitation, MM = Missing Value Source: NWS Daily Summary

Daily Weather History Graph

Daily Weather History Graph

Search for Another Location

Airport:

Trip Planner

Search our weather history database for the weather conditions in past years. The results will help you decide how hot, cold, wet, or windy it might be!

Date:

Astronomy

Aug. 08, 2013 Rise Set
Actual Time 6:08 AM MDT 7:57 PM MDT
Civil Twilight 5:39 AM MDT 8:25 PM MDT
Nautical Twilight 5:05 AM MDT 8:59 PM MDT
Astronomical Twilight 4:28 AM MDT 9:35 PM MDT
Moon 7:53 AM MDT (8/8) 8:41 PM MDT (8/8)
Length of Visible Light 14h 45m
Length of Day
13h 49m
Waxing Crescent, 3% of the Moon is Illuminated
Aug 8
Waxing Crescent
Aug 14
First Quarter
Aug 20
Full
Aug 28
Last Quarter
Sep 5
New

Hourly Weather History & Observations

Time (MDT) Temp. Dew Point Humidity Pressure Visibility Wind Dir Wind Speed Gust Speed Precip Events Conditions
12:54 AM 57.9 °F 55.9 °F 93% 29.87 in 10.0 mi West 6.9 mph - N/A   Clear
1:54 AM 57.0 °F 55.0 °F 93% 29.91 in 10.0 mi NW 6.9 mph - N/A   Partly Cloudy
2:54 AM 55.0 °F 53.1 °F 93% 29.93 in 10.0 mi Calm Calm - 0.01 in   Partly Cloudy
3:54 AM 55.0 °F 53.1 °F 93% 29.92 in 10.0 mi West 5.8 mph - N/A   Clear
4:54 AM 54.0 °F 52.0 °F 93% 29.91 in 10.0 mi West 4.6 mph - N/A   Clear
5:54 AM 55.0 °F 53.1 °F 93% 29.92 in 10.0 mi West 4.6 mph - N/A   Clear
6:54 AM 55.9 °F 53.1 °F 90% 29.96 in 10.0 mi WNW 6.9 mph - N/A   Clear
7:31 AM 57.2 °F 53.6 °F 88% 30.15 in 10.0 mi WNW 4.6 mph - N/A   Partly Cloudy
7:44 AM 57.2 °F 55.4 °F 94% 30.15 in 10.0 mi West 5.8 mph - N/A   Mostly Cloudy
7:54 AM 57.9 °F 55.0 °F 90% 29.98 in 10.0 mi WNW 5.8 mph - N/A   Mostly Cloudy
8:54 AM 61.0 °F 57.0 °F 87% 29.98 in 10.0 mi North 5.8 mph - N/A   Overcast
9:18 AM 60.8 °F 57.2 °F 88% 30.17 in 10.0 mi NNW 4.6 mph - N/A   Overcast
9:41 AM 62.6 °F 57.2 °F 82% 30.17 in 10.0 mi NNW 5.8 mph - N/A   Overcast
9:54 AM 62.1 °F 57.0 °F 84% 30.00 in 10.0 mi WNW 5.8 mph - N/A   Overcast
10:07 AM 62.6 °F 57.2 °F 82% 30.18 in 10.0 mi WNW 4.6 mph - N/A   Overcast
10:33 AM 64.4 °F 57.2 °F 77% 30.18 in 10.0 mi Calm Calm - N/A   Overcast
10:54 AM 66.0 °F 57.0 °F 73% 29.99 in 10.0 mi Calm Calm - N/A   Overcast
11:51 AM 64.4 °F 57.2 °F 77% 30.18 in 10.0 mi East 10.4 mph - N/A   Overcast
11:54 AM 64.9 °F 57.9 °F 78% 29.99 in 10.0 mi East 9.2 mph - N/A   Overcast
12:29 PM 66.2 °F 57.2 °F 73% 30.17 in 10.0 mi East 6.9 mph - N/A   Overcast
12:44 PM 66.2 °F 57.2 °F 73% 30.17 in 10.0 mi East 8.1 mph - N/A   Overcast
12:54 PM 66.0 °F 57.0 °F 73% 29.99 in 10.0 mi ENE 9.2 mph - N/A   Overcast
1:18 PM 66.2 °F 57.2 °F 73% 30.17 in 10.0 mi ENE 9.2 mph - N/A Thunderstorm Thunderstorm
1:54 PM 60.1 °F 57.9 °F 93% 30.02 in 2.0 mi NNE 9.2 mph - 0.15 in Rain , Thunderstorm Heavy Thunderstorms and Rain
2:01 PM 60.8 °F 57.2 °F 88% 30.18 in 1.2 mi North 6.9 mph - 0.11 in Rain , Thunderstorm Heavy Thunderstorms and Rain
2:14 PM 60.8 °F 57.2 °F 88% 30.18 in 3.0 mi ENE 5.8 mph - 0.21 in Rain , Thunderstorm Light Thunderstorms and Rain
2:54 PM 61.0 °F 59.0 °F 93% 30.03 in 10.0 mi ESE 5.8 mph - 0.23 in Rain , Thunderstorm Light Thunderstorms and Rain
3:14 PM 60.8 °F 59.0 °F 94% 30.19 in 10.0 mi South 6.9 mph - 0.00 in   Overcast
3:34 PM 60.8 °F 57.2 °F 88% 30.18 in 10.0 mi South 11.5 mph - 0.00 in   Overcast
3:54 PM 61.0 °F 57.0 °F 87% 30.01 in 10.0 mi South 6.9 mph - 0.00 in   Partly Cloudy
4:54 PM 64.9 °F 57.0 °F 75% 29.99 in 10.0 mi SE 3.5 mph - N/A   Mostly Cloudy
5:54 PM 64.0 °F 57.9 °F 80% 30.01 in 10.0 mi Calm Calm - 0.03 in   Overcast
6:03 PM 64.4 °F 60.8 °F 88% 30.18 in 10.0 mi North 6.9 mph - N/A   Overcast
6:20 PM 62.6 °F 60.8 °F 94% 30.18 in 10.0 mi NNW 6.9 mph - 0.00 in Rain Light Rain
6:54 PM 62.1 °F 57.0 °F 84% 30.02 in 10.0 mi NE 9.2 mph - 0.00 in Rain Light Rain
7:38 PM 60.8 °F 55.4 °F 82% 30.19 in 10.0 mi WNW 3.5 mph - 0.00 in   Overcast
7:54 PM 60.1 °F 55.0 °F 83% 30.03 in 10.0 mi West 3.5 mph - 0.00 in   Overcast
8:11 PM 60.8 °F 55.4 °F 82% 30.20 in 10.0 mi WNW 4.6 mph - N/A   Mostly Cloudy
8:54 PM 59.0 °F 55.0 °F 87% 30.03 in 10.0 mi West 4.6 mph - N/A   Scattered Clouds
9:54 PM 57.9 °F 52.0 °F 81% 30.05 in 10.0 mi NW 6.9 mph - N/A   Clear
10:31 PM 57.2 °F 53.6 °F 88% 30.23 in 10.0 mi WNW 4.6 mph - N/A   Mostly Cloudy
10:54 PM 57.0 °F 53.1 °F 87% 30.06 in 10.0 mi West 4.6 mph - N/A   Overcast
11:54 PM 57.9 °F 53.1 °F 84% 30.07 in 10.0 mi WNW 3.5 mph - N/A   Overcast